Whiteville, NC

12:31 PM EDT on March 30, 2017 (GMT -0400)
Columbus County Municipal

Weather History for KCPC - February, 2013

Change the Weather History Date:

Tuesday, February 26, 2013

  Actual Average (KCRE) Record (KCRE)
Temperature  
Mean Temperature 40 °F -  
Max Temperature 48 °F 57 °F 77 °F (2001)
Min Temperature 31 °F 40 °F 28 °F (1994)
Degree Days  
Heating Degree Days 25    
Moisture  
Dew Point 36 °F    
Average Humidity 90    
Maximum Humidity 100    
Minimum Humidity 68    
Precipitation  
Precipitation 0.68 in - - ()
Sea Level Pressure  
Sea Level Pressure 29.78 in    
Wind  
Wind Speed 9 mph (East)    
Max Wind Speed 17 mph    
Max Gust Speed 28 mph    
Visibility 7 miles    
Events Rain    
Averages and records for this station are not official NWS values.
T = Trace of Precipitation, MM = Missing Value Source: NWS Daily Summary

Daily Weather History Graph

Daily Weather History Graph

Search for Another Location

Airport or City:

Trip Planner

Search our weather history database for the weather conditions in past years. The results will help you decide how hot, cold, wet, or windy it might be!

Date:

Astronomy

Feb. 26, 2013 Rise Set
Actual Time 6:47 AM EST 6:08 PM EST
Civil Twilight 6:21 AM EST 6:33 PM EST
Nautical Twilight 5:52 AM EST 7:03 PM EST
Astronomical Twilight 5:23 AM EST 7:32 PM EST
Moon 7:17 PM EST (2/26) 6:53 AM EST (2/26)
Length of Visible Light 12h 12m
Length of Day
11h 21m
Full, 99% of the Moon is Illuminated
Feb 26
Full
Mar 4
Last Quarter
Mar 11
New
Mar 19
First Quarter
Mar 27
Full

Hourly Weather History & Observations

Time (EST) Temp. Windchill Dew Point Humidity Pressure Visibility Wind Dir Wind Speed Gust Speed Precip Events Conditions
12:15 AM 41.0 °F 34.7 °F 31.1 °F 68% 30.05 in 10.0 mi NE 10.4 mph - N/A   Overcast
12:35 AM 41.0 °F 39.0 °F 31.5 °F 69% 30.06 in 10.0 mi NNE 3.5 mph - N/A   Overcast
12:55 AM 40.8 °F 36.2 °F 31.3 °F 69% 30.07 in 10.0 mi NE 6.9 mph - N/A   Mostly Cloudy
1:15 AM 40.6 °F 36.7 °F 31.6 °F 70% 30.05 in 10.0 mi NE 5.8 mph - N/A   Mostly Cloudy
1:35 AM 40.5 °F 34.1 °F 31.6 °F 71% 30.03 in 10.0 mi NE 10.4 mph - N/A   Mostly Cloudy
1:55 AM 40.5 °F 34.6 °F 31.8 °F 71% 30.03 in 10.0 mi NE 9.2 mph - N/A   Overcast
2:15 AM 40.5 °F 34.6 °F 31.8 °F 71% 30.03 in 10.0 mi NE 9.2 mph - N/A   Overcast
2:35 AM 40.5 °F 36.5 °F 32.0 °F 72% 30.02 in 10.0 mi NE 5.8 mph - N/A   Overcast
2:55 AM 40.6 °F 33.8 °F 32.2 °F 72% 30.00 in 10.0 mi NE 11.5 mph - N/A   Overcast
3:15 AM 41.0 °F 35.2 °F 32.9 °F 73% 29.98 in 10.0 mi NE 9.2 mph - N/A   Overcast
3:35 AM 41.0 °F 35.2 °F 32.9 °F 73% 29.98 in 10.0 mi NE 9.2 mph 16.1 mph N/A   Overcast
3:55 AM 41.0 °F 36.4 °F 33.4 °F 74% 29.98 in 10.0 mi NE 6.9 mph - N/A   Overcast
4:15 AM 41.0 °F 35.2 °F 34.0 °F 76% 29.97 in 10.0 mi NE 9.2 mph - N/A   Overcast
4:35 AM 41.0 °F 34.7 °F 35.1 °F 79% 29.97 in 10.0 mi NE 10.4 mph - N/A Rain Light Rain
4:55 AM 40.3 °F 34.4 °F 36.7 °F 87% 29.95 in 7.0 mi NE 9.2 mph - N/A Rain Light Rain
5:15 AM 40.1 °F 34.7 °F 37.6 °F 91% 29.94 in 10.0 mi NE 8.1 mph - 0.01 in   Drizzle
5:35 AM 40.1 °F 34.1 °F 37.9 °F 92% 29.93 in 10.0 mi NE 9.2 mph - 0.01 in Rain Light Rain
5:55 AM 40.5 °F 34.1 °F 38.7 °F 93% 29.93 in 10.0 mi NE 10.4 mph - 0.01 in   Drizzle
6:15 AM 41.0 °F 35.8 °F 39.6 °F 95% 29.93 in 10.0 mi NE 8.1 mph - N/A Rain Light Rain
6:35 AM 41.5 °F 35.0 °F 40.1 °F 95% 29.92 in 10.0 mi NE 11.5 mph - N/A Rain Light Rain
6:55 AM 41.9 °F 35.9 °F 40.8 °F 96% 29.92 in 7.0 mi NE 10.4 mph - N/A Rain Rain
7:15 AM 42.6 °F 36.8 °F 41.4 °F 95% 29.90 in 5.0 mi ENE 10.4 mph 20.7 mph 0.01 in Rain Rain
7:35 AM 43.2 °F 36.6 °F 42.3 °F 97% 29.89 in 4.0 mi ENE 12.7 mph 19.6 mph 0.01 in Rain Light Rain
7:55 AM 43.7 °F 37.3 °F 43.0 °F 97% 29.89 in 3.0 mi ENE 12.7 mph - 0.01 in   Drizzle
8:15 AM 44.6 °F 38.4 °F 43.7 °F 97% 29.88 in 3.0 mi ENE 12.7 mph 18.4 mph 0.01 in Rain Light Rain
8:35 AM 45.3 °F 39.3 °F 44.6 °F 97% 29.87 in 3.0 mi ENE 12.7 mph 18.4 mph 0.04 in Rain Light Rain
8:55 AM 45.9 °F 40.0 °F 45.3 °F 98% 29.86 in 4.0 mi ENE 12.7 mph 18.4 mph 0.05 in Rain Light Rain
9:15 AM 46.4 °F 41.1 °F 45.9 °F 98% 29.85 in 5.0 mi ENE 11.5 mph 19.6 mph 0.01 in   Drizzle
9:35 AM 46.6 °F - 46.0 °F 98% 29.83 in 4.0 mi ENE 11.5 mph - 0.01 in Rain Light Rain
9:55 AM 47.3 °F - 46.8 °F 98% 29.82 in 4.0 mi ENE 10.4 mph - 0.02 in Rain Light Rain
10:15 AM 47.5 °F - 47.1 °F 99% 29.82 in 3.0 mi ENE 8.1 mph - 0.02 in Rain Rain
10:35 AM 47.3 °F - 46.8 °F 98% 29.82 in 0.8 mi Calm Calm - 0.14 in Rain Heavy Rain
10:55 AM 48.2 °F - 48.2 °F 100% 29.80 in 7.0 mi East 6.9 mph - 0.21 in Rain Light Rain
11:15 AM 48.6 °F - 48.4 °F 99% 29.78 in 5.0 mi East 10.4 mph 16.1 mph 0.02 in Rain Light Rain
11:35 AM 47.7 °F - 47.3 °F 99% 29.76 in 10.0 mi East 12.7 mph 18.4 mph 0.03 in Rain Light Rain
11:55 AM 46.0 °F 41.0 °F 45.5 °F 98% 29.74 in 7.0 mi East 10.4 mph - 0.04 in Rain Rain
12:15 PM 45.3 °F 40.6 °F 44.8 °F 98% 29.72 in 5.0 mi East 9.2 mph 16.1 mph 0.03 in Rain Rain
12:35 PM 42.4 °F 38.1 °F 41.9 °F 98% 29.71 in 3.0 mi East 6.9 mph - 0.12 in Rain Rain
12:55 PM 39.2 °F 33.6 °F 38.5 °F 97% 29.68 in 7.0 mi East 8.1 mph - 0.16 in Rain Light Rain
1:15 PM 36.3 °F 29.5 °F 35.6 °F 97% 29.67 in 3.0 mi ESE 9.2 mph - 0.04 in Rain Heavy Rain
1:35 PM 35.8 °F 27.3 °F 35.4 °F 99% 29.69 in 3.0 mi South 12.7 mph 17.3 mph 0.18 in Rain Light Rain
1:55 PM 35.6 °F 29.9 °F 34.7 °F 97% 29.67 in 7.0 mi SSE 6.9 mph - 0.18 in Rain Heavy Rain
2:15 PM 33.6 °F 24.1 °F 32.5 °F 96% 29.64 in 10.0 mi SSE 13.8 mph 18.4 mph N/A   Overcast
2:35 PM 33.8 °F 25.8 °F 32.2 °F 94% 29.62 in 10.0 mi SSE 10.4 mph 17.3 mph N/A   Mostly Cloudy
2:55 PM 34.0 °F 25.0 °F 32.0 °F 92% 29.60 in 7.0 mi SSE 12.7 mph 18.4 mph N/A   Mostly Cloudy
3:15 PM 34.2 °F 24.4 °F 32.0 °F 92% 29.59 in 7.0 mi SSE 15.0 mph 19.6 mph N/A   Scattered Clouds
3:35 PM 34.7 °F 25.9 °F 32.0 °F 90% 29.59 in 7.0 mi South 12.7 mph 20.7 mph N/A   Scattered Clouds
3:55 PM 35.1 °F 24.8 °F 32.0 °F 89% 29.58 in 5.0 mi South 17.3 mph 26.5 mph N/A   Scattered Clouds
4:15 PM 35.6 °F 25.5 °F 32.0 °F 87% 29.58 in 5.0 mi South 17.3 mph 27.6 mph N/A   Scattered Clouds
4:35 PM 35.6 °F 25.9 °F 32.0 °F 87% 29.58 in 5.0 mi South 16.1 mph 24.2 mph N/A   Scattered Clouds
4:55 PM 36.0 °F 27.5 °F 32.4 °F 87% 29.59 in 5.0 mi South 12.7 mph 21.9 mph N/A   Scattered Clouds
5:15 PM 36.1 °F 28.7 °F 32.4 °F 86% 29.58 in 7.0 mi South 10.4 mph - N/A   Scattered Clouds
5:35 PM 36.1 °F 29.9 °F 32.5 °F 87% 29.57 in 7.0 mi South 8.1 mph 16.1 mph N/A   Clear
5:55 PM 36.1 °F 30.6 °F 32.9 °F 88% 29.55 in 7.0 mi SSE 6.9 mph - N/A   Clear
6:15 PM 35.6 °F 30.7 °F 33.1 °F 91% 29.56 in 7.0 mi South 5.8 mph - N/A   Clear
6:35 PM 35.6 °F 29.2 °F 33.3 °F 91% 29.57 in 7.0 mi South 8.1 mph - N/A   Clear
6:55 PM 34.9 °F 29.0 °F 33.1 °F 93% 29.58 in 7.0 mi South 6.9 mph - N/A   Clear
7:15 PM 34.7 °F 28.8 °F 33.1 °F 94% 29.59 in 7.0 mi South 6.9 mph - N/A   Clear
7:35 PM 34.3 °F 28.4 °F 32.9 °F 94% 29.59 in 7.0 mi South 6.9 mph - N/A   Clear
7:55 PM 34.2 °F 28.2 °F 32.9 °F 95% 29.60 in 7.0 mi South 6.9 mph - N/A   Clear
8:15 PM 33.8 °F 27.7 °F 32.4 °F 94% 29.60 in 7.0 mi South 6.9 mph - N/A   Clear
8:35 PM 33.3 °F 27.1 °F 32.0 °F 95% 29.61 in 7.0 mi SSW 6.9 mph - N/A   Clear
8:55 PM 33.3 °F 25.7 °F 32.0 °F 95% 29.62 in 10.0 mi South 9.2 mph - N/A   Clear
9:15 PM 32.9 °F 29.8 °F 32.0 °F 96% 29.63 in 7.0 mi SW 3.5 mph - N/A   Clear
9:35 PM 33.1 °F - 32.0 °F 96% 29.64 in 10.0 mi Calm Calm - N/A   Clear
9:55 PM 32.5 °F - 31.6 °F 96% 29.65 in 10.0 mi Calm Calm - N/A   Clear
10:15 PM 32.7 °F 29.6 °F 30.9 °F 93% 29.67 in 10.0 mi West 3.5 mph - N/A   Scattered Clouds
10:35 PM 32.2 °F 27.7 °F 30.6 °F 94% 29.67 in 10.0 mi West 4.6 mph - N/A   Scattered Clouds
10:55 PM 32.0 °F - 30.2 °F 93% 29.67 in 10.0 mi Calm Calm - N/A   Scattered Clouds
11:15 PM 32.0 °F 27.5 °F 29.3 °F 90% 29.66 in 10.0 mi West 4.6 mph - N/A   Clear
11:55 PM 31.1 °F 27.7 °F 29.3 °F 93% 29.67 in 10.0 mi West 3.5 mph - N/A   Clear